This is the latest recevied weather packets stored in our database for station/object VU3ZAG-WX. If no packets are shown the sender has not sent any weather packets the latest 10 day(s).
| Time | Temp. | Humidity | Pressure | Rain* | Wind** | Luminosity | Snow |
|---|---|---|---|---|---|---|---|
| 1777750652 | 32.22° C | 56% | 1009 hPa | - | - | - | - |
| 1777750046 | 31.67° C | 58% | 1009.2 hPa | - | - | - | - |
| 1777749442 | 31.67° C | 58% | 1009.3 hPa | - | - | - | - |
| 1777748836 | 31.67° C | 59% | 1009.4 hPa | - | - | - | - |
| 1777748230 | 31.67° C | 60% | 1009.5 hPa | - | - | - | - |
| 1777747624 | 31.11° C | 62% | 1009.6 hPa | - | - | - | - |
| 1777747018 | 31.67° C | 61% | 1009.7 hPa | - | - | - | - |
| 1777746413 | 31.67° C | 64% | 1009.9 hPa | - | - | - | - |
| 1777745807 | 31.67° C | 60% | 1010 hPa | - | - | - | - |
| 1777745202 | 31.67° C | 63% | 1010 hPa | - | - | - | - |
| 1777744596 | 31.67° C | 64% | 1010.1 hPa | - | - | - | - |
| 1777743991 | 32.22° C | 60% | 1010.1 hPa | - | - | - | - |
| 1777743385 | 32.22° C | 61% | 1010.1 hPa | - | - | - | - |
| 1777742780 | 32.22° C | 57% | 1010 hPa | - | - | - | - |
| 1777742174 | 32.22° C | 57% | 1009.9 hPa | - | - | - | - |
| 1777741568 | 32.22° C | 57% | 1009.9 hPa | - | - | - | - |
| 1777740963 | 32.22° C | 58% | 1009.8 hPa | - | - | - | - |
| 1777740357 | 32.22° C | 58% | 1009.7 hPa | - | - | - | - |
| 1777739751 | 31.67° C | 58% | 1009.6 hPa | - | - | - | - |
| 1777739146 | 31.67° C | 60% | 1009.6 hPa | - | - | - | - |
| 1777738541 | 31.11° C | 61% | 1009.4 hPa | - | - | - | - |
| 1777737935 | 31.11° C | 61% | 1009.2 hPa | - | - | - | - |
| 1777737329 | 31.11° C | 60% | 1009.1 hPa | - | - | - | - |
| 1777736723 | 31.11° C | 62% | 1008.9 hPa | - | - | - | - |
| 1777736117 | 31.11° C | 62% | 1008.8 hPa | - | - | - | - |
* Rain since midnight (hover to see other rain measurements)
** Current wind speed in m/s (hover to see current wind gust speed)